| time (UTC) | temp F | wind direction | speed knots | gust knots | rain 1hr in | rain 24hr in | rain mn in | humidity % | barometer mb |
| 20260507073027 | 55 | 315 | 0.9 | 4.3 | 0.00 | 0.43 | 0.00 | 92 | 1005.9 |
| 20260507071528 | 55 | 303 | 1.7 | 6.1 | 0.00 | 0.43 | 0.00 | 95 | 1005.2 |
| 20260507070023 | 56 | 291 | 0.0 | 2.6 | 0.00 | 0.43 | 0.00 | 96 | 1005.1 |
| 20260507064533 | 56 | 306 | 0.9 | 7.0 | 0.00 | 0.43 | 0.00 | 96 | 1005.3 |
| 20260507063020 | 56 | 5 | 0.0 | 1.7 | 0.00 | 0.43 | 0.00 | 97 | 1005.4 |
| 20260507061518 | 56 | 25 | 0.0 | 0.0 | 0.00 | 0.43 | 0.00 | 97 | 1005.4 |
| 20260507060020 | 56 | 25 | 0.0 | 0.0 | 0.00 | 0.43 | 0.00 | 97 | 1005.5 |
| 20260507054516 | 56 | 25 | 0.0 | 0.9 | 0.00 | 0.43 | 0.00 | 97 | 1005.8 |
| 20260507053013 | 56 | 25 | 0.0 | 0.0 | 0.00 | 0.43 | 0.00 | 97 | 1005.8 |
| 20260507051514 | 56 | 25 | 0.0 | 0.0 | 0.00 | 0.43 | 0.00 | 97 | 1005.9 |
| 20260507050032 | 56 | 25 | 0.0 | 0.9 | 0.00 | 0.43 | 0.00 | 97 | 1006.2 |
| 20260507044511 | 56 | 25 | 0.0 | 0.9 | 0.00 | 0.43 | 0.00 | 97 | 1006.1 |
| 20260507043011 | 56 | 25 | 0.0 | 0.0 | 0.00 | 0.43 | 0.00 | 97 | 1006.2 |
| 20260507041521 | 56 | 25 | 0.0 | 0.0 | 0.00 | 0.43 | 0.00 | 97 | 1005.8 |
| 20260507040007 | 56 | 25 | 0.0 | 0.9 | 0.00 | 0.43 | 0.00 | 97 | 1006.1 |
| 20260507034506 | 56 | 33 | 0.0 | 1.7 | 0.00 | 0.43 | 0.43 | 97 | 1006.1 |
| 20260507033006 | 55 | 96 | 0.0 | 2.6 | 0.00 | 0.43 | 0.43 | 97 | 1006.3 |
| 20260507031508 | 55 | 5 | 0.0 | 1.7 | 0.00 | 0.43 | 0.43 | 96 | 1006.0 |
| 20260507030016 | 55 | 355 | 0.0 | 1.7 | 0.43 | 0.43 | 0.43 | 96 | 1006.0 |
| 20260507024512 | 55 | 313 | 0.0 | 2.6 | 0.43 | 0.43 | 0.43 | 96 | 1006.0 |
| 20260507023003 | 55 | 30 | 0.0 | 2.6 | 0.43 | 0.43 | 0.43 | 96 | 1006.1 |
| 20260507021502 | 55 | 104 | 0.0 | 2.6 | 0.43 | 0.43 | 0.43 | 96 | 1006.0 |
| 20260507020001 | 55 | 185 | 0.0 | 2.6 | 0.00 | 0.00 | 0.00 | 96 | 1006.2 |
| 20260507014602 | 55 | 163 | 0.0 | 1.7 | 0.00 | 0.00 | 0.00 | 96 | 1006.3 |
| 20260507013059 | 55 | 132 | 0.0 | 3.5 | 0.00 | 0.00 | 0.00 | 96 | 1006.5 |
| 20260507011559 | 55 | 171 | 0.9 | 1.7 | 0.00 | 0.00 | 0.00 | 96 | 1006.5 |
| 20260507010111 | 55 | 82 | 0.0 | 3.5 | 0.00 | 0.00 | 0.00 | 96 | 1006.6 |
| 20260507004557 | 55 | 17 | 0.0 | 1.7 | 0.00 | 0.00 | 0.00 | 96 | 1006.5 |
| 20260507003057 | 55 | 258 | 0.9 | 3.5 | 0.00 | 0.00 | 0.00 | 96 | 1006.5 |
| 20260507001605 | 55 | 155 | 0.0 | 3.5 | 0.00 | 0.00 | 0.00 | 96 | 1006.6 |
| 20260507000056 | 55 | 25 | 0.0 | 4.3 | 0.00 | 0.00 | 0.00 | 96 | 1006.6 |
| 20260506234559 | 55 | 135 | 0.9 | 3.5 | 0.00 | 0.00 | 0.00 | 95 | 1006.4 |
| 20260506233055 | 55 | 96 | 0.9 | 6.1 | 0.00 | 0.00 | 0.00 | 95 | 1006.5 |
| 20260506231607 | 55 | 171 | 0.0 | 3.5 | 0.00 | 0.00 | 0.00 | 95 | 1006.5 |
| 20260506230106 | 55 | 202 | 1.7 | 7.8 | 0.00 | 0.00 | 0.00 | 94 | 1006.4 |
| 20260506224551 | 55 | 157 | 0.9 | 4.3 | 0.00 | 0.00 | 0.00 | 94 | 1006.4 |
| 20260506223049 | 56 | 186 | 0.9 | 3.5 | 0.00 | 0.00 | 0.00 | 94 | 1006.5 |
| 20260506221607 | 56 | 136 | 0.0 | 4.3 | 0.00 | 0.00 | 0.00 | 94 | 1006.7 |
| 20260506220104 | 56 | 168 | 0.9 | 6.1 | 0.00 | 0.00 | 0.00 | 93 | 1006.9 |
| 20260506214548 | 57 | 320 | 0.9 | 4.3 | 0.00 | 0.00 | 0.00 | 92 | 1007.0 |
| 20260506213102 | 57 | 360 | 0.9 | 4.3 | 0.00 | 0.00 | 0.00 | 92 | 1007.0 |
| 20260506211543 | 57 | 107 | 0.9 | 6.1 | 0.00 | 0.00 | 0.00 | 92 | 1007.1 |
| 20260506210053 | 57 | 5 | 0.0 | 3.5 | 0.00 | 0.00 | 0.00 | 92 | 1007.2 |
| 20260506204541 | 57 | 202 | 1.7 | 7.0 | 0.00 | 0.00 | 0.00 | 91 | 1007.3 |
| 20260506203039 | 58 | 169 | 0.0 | 4.3 | 0.00 | 0.00 | 0.00 | 91 | 1007.5 |
| 20260506201544 | 58 | 164 | 0.0 | 7.8 | 0.00 | 0.00 | 0.00 | 91 | 1007.5 |
| 20260506200038 | 59 | 155 | 0.9 | 4.3 | 0.00 | 0.00 | 0.00 | 90 | 1007.6 |
| 20260506194536 | 60 | 261 | 1.7 | 5.2 | 0.00 | 0.00 | 0.00 | 87 | 1007.8 |
| 20260506193036 | 61 | 136 | 0.0 | 2.6 | 0.00 | 0.00 | 0.00 | 84 | 1007.8 |
| 20260506191535 | 62 | 277 | 0.9 | 5.2 | 0.00 | 0.00 | 0.00 | 79 | 1007.8 |
| 20260506190035 | 63 | 235 | 0.9 | 7.8 | 0.00 | 0.00 | 0.00 | 78 | 1008.0 |
| 20260506184535 | 63 | 289 | 0.9 | 5.2 | 0.00 | 0.00 | 0.00 | 76 | 1007.8 |
| 20260506183033 | 64 | 204 | 1.7 | 7.0 | 0.00 | 0.00 | 0.00 | 75 | 1008.0 |
| 20260506181539 | 65 | 134 | 1.7 | 6.1 | 0.00 | 0.00 | 0.00 | 74 | 1008.1 |
| 20260506180033 | 65 | 140 | 0.9 | 7.8 | 0.00 | 0.00 | 0.00 | 74 | 1008.2 |
| 20260506174532 | 66 | 211 | 1.7 | 7.8 | 0.00 | 0.00 | 0.00 | 73 | 1008.5 |
| 20260506173027 | 66 | 59 | 1.7 | 10.4 | 0.00 | 0.00 | 0.00 | 73 | 1008.9 |
| 20260506171538 | 67 | 22 | 1.7 | 10.4 | 0.00 | 0.00 | 0.00 | 71 | 1008.8 |
| 20260506170025 | 68 | 292 | 0.9 | 8.7 | 0.00 | 0.00 | 0.00 | 72 | 1008.7 |
| 20260506164524 | 67 | 144 | 4.3 | 15.6 | 0.00 | 0.00 | 0.00 | 70 | 1009.1 |
| 20260506163023 | 67 | 67 | 0.9 | 6.1 | 0.00 | 0.00 | 0.00 | 71 | 1009.2 |
| 20260506161520 | 67 | 36 | 1.7 | 7.8 | 0.00 | 0.00 | 0.00 | 70 | 1009.3 |
| 20260506160020 | 68 | 205 | 2.6 | 8.7 | 0.00 | 0.00 | 0.00 | 69 | 1009.5 |
| 20260506154519 | 68 | 140 | 1.7 | 9.6 | 0.00 | 0.00 | 0.00 | 70 | 1009.7 |
| 20260506153016 | 67 | 252 | 2.6 | 8.7 | 0.00 | 0.00 | 0.00 | 71 | 1010.0 |
| 20260506151518 | 66 | 244 | 0.9 | 8.7 | 0.00 | 0.00 | 0.00 | 73 | 1009.9 |
| 20260506150012 | 66 | 211 | 2.6 | 7.0 | 0.00 | 0.00 | 0.00 | 73 | 1010.0 |
| 20260506144510 | 66 | 202 | 1.7 | 10.4 | 0.00 | 0.00 | 0.00 | 72 | 1010.0 |
| 20260506143010 | 66 | 319 | 1.7 | 7.8 | 0.00 | 0.00 | 0.00 | 72 | 1009.8 |
| 20260506141508 | 65 | 327 | 0.9 | 9.6 | 0.00 | 0.00 | 0.00 | 73 | 1010.0 |
| 20260506140016 | 65 | 197 | 1.7 | 7.8 | 0.00 | 0.00 | 0.00 | 74 | 1009.7 |
| 20260506134504 | 65 | 162 | 0.9 | 7.0 | 0.00 | 0.01 | 0.00 | 75 | 1010.0 |
| 20260506133102 | 63 | 293 | 0.0 | 4.3 | 0.00 | 0.01 | 0.00 | 78 | 1010.4 |
| 20260506131612 | 62 | 309 | 1.7 | 6.1 | 0.00 | 0.01 | 0.00 | 80 | 1010.5 |
| 20260506130056 | 61 | 109 | 1.7 | 7.0 | 0.00 | 0.01 | 0.00 | 81 | 1010.6 |
| 20260506124550 | 60 | 256 | 0.9 | 3.5 | 0.00 | 0.07 | 0.00 | 82 | 1010.6 |
| 20260506123052 | 60 | 155 | 1.7 | 7.8 | 0.00 | 0.07 | 0.00 | 83 | 1010.6 |
| 20260506121550 | 59 | 283 | 0.9 | 2.6 | 0.00 | 0.07 | 0.00 | 85 | 1010.5 |
| 20260506120050 | 59 | 73 | 0.0 | 6.1 | 0.00 | 0.07 | 0.00 | 85 | 1010.9 |
| 20260506114551 | 59 | 159 | 0.0 | 3.5 | 0.00 | 0.07 | 0.00 | 86 | 1010.8 |
| 20260506113041 | 58 | 128 | 0.9 | 4.3 | 0.00 | 0.07 | 0.00 | 88 | 1011.0 |
| 20260506111539 | 57 | 196 | 0.9 | 3.5 | 0.00 | 0.07 | 0.00 | 89 | 1011.0 |
| 20260506110038 | 57 | 153 | 0.0 | 4.3 | 0.00 | 0.07 | 0.00 | 89 | 1010.9 |
| 20260506104538 | 57 | 136 | 0.9 | 3.5 | 0.00 | 0.07 | 0.00 | 89 | 1010.9 |
| 20260506103035 | 56 | 87 | 0.9 | 3.5 | 0.00 | 0.07 | 0.00 | 90 | 1010.9 |
| 20260506101533 | 56 | 188 | 0.9 | 4.3 | 0.00 | 0.07 | 0.00 | 90 | 1010.9 |
| 20260506100032 | 56 | 331 | 0.0 | 3.5 | 0.00 | 0.07 | 0.00 | 90 | 1010.7 |
| 20260506094529 | 56 | 101 | 0.0 | 3.5 | 0.00 | 0.07 | 0.00 | 89 | 1010.6 |
| 20260506093028 | 56 | 217 | 0.0 | 7.0 | 0.00 | 0.07 | 0.00 | 89 | 1010.6 |
| 20260506091527 | 56 | 153 | 0.0 | 3.5 | 0.00 | 0.07 | 0.00 | 89 | 1010.7 |
| 20260506090026 | 56 | 171 | 0.0 | 3.5 | 0.00 | 0.07 | 0.00 | 89 | 1010.6 |
| 20260506084525 | 57 | 76 | 0.9 | 6.1 | 0.00 | 0.07 | 0.00 | 88 | 1010.8 |
| 20260506083024 | 57 | 74 | 0.0 | 2.6 | 0.00 | 0.07 | 0.00 | 88 | 1010.8 |
| 20260506081523 | 57 | 152 | 0.9 | 5.2 | 0.00 | 0.07 | 0.00 | 88 | 1010.9 |